Flag for France Weather past 2 weeks in Toulon, France

Now
70 °F

Passing clouds.


Feels Like: 70 °F
Forecast: 58 / 80 °F
Wind: 6 mph from Southwest

Location: Hyeres Airport

Current Time: Jun 2, 2015 at 9:42:23 AM

Latest Report: Jun 2, 2015 at 9:00 AM


Visibility: N/A

Pressure: 30.09 "Hg

Humidity: 69%

Dew point: 59 °F

Location of ToulonLocation

Historic Weather in Toulon — Graph

°F

Toulon temperature yesterday

Maximum temperature yesterday: 75 °F (at 3:30 PM)
Minimum temperature yesterday: 54 °F (at 5:30 AM)
Average temperature yesterday: 66 °F

Past Weeks' High & Low Weather Summary

 TemperatureHumidityPressure
High79 °F (May 30, 4:30 PM)100% (May 30, 6:00 AM)30.09 "Hg (May 30, 6:00 AM)
Low46 °F (May 22, 5:00 AM)19% (May 20, 3:30 PM)29.77 "Hg (May 19, 3:30 AM)
Average64 °F66%29.93 "Hg
* Reported May 18 8:00 AM — Jun 2 8:30 AM, Toulon, Weather by CustomWeather, © 2015

Note: Actual official high and low records may vary slightly from our data, if they occured in-between our weather recording intervals... More about our weather records

Advertising

Toulon weather history for previous 24 hours

 ConditionsComfort  
Time TempWeatherWind HumidityBarometerVisibility
8:30 AM
Tue, Jun 2
68 °FSunny.No wind73%30.09 "Hg10 mi
8:00 AM66 °FSunny.No wind83%30.09 "Hg10 mi
7:30 AM63 °FSunny.2 mph88%30.07 "Hg10 mi
7:00 AM59 °FSunny.2 mph94%30.07 "Hg10 mi
6:30 AM57 °FClear.1 mph94%30.07 "Hg10 mi
5:30 AM57 °FClear.2 mph100%30.07 "Hg10 mi
4:30 AM55 °FClear.3 mph94%30.07 "Hg6 mi
4:00 AM59 °FClear.1 mph94%30.07 "Hg10 mi
3:30 AM57 °FClear.No wind94%30.07 "Hg6 mi
3:00 AM57 °FClear.2 mph94%30.07 "Hg6 mi
2:30 AM57 °FClear.No wind94%30.07 "Hg6 mi
2:00 AM61 °FClear.2 mph88%30.07 "Hg5 mi
1:30 AM63 °FClear.3 mph94%30.07 "Hg10 mi
1:00 AM61 °FClear.2 mph94%30.07 "Hg10 mi
12:30 AM59 °FClear.2 mph94%30.09 "Hg6 mi
12:00 AM63 °FClear.No wind94%30.09 "Hg10 mi
11:30 PM
Mon, Jun 1
63 °FClear.No wind94%30.09 "Hg10 mi
11:00 PM63 °FClear.2 mph94%30.09 "Hg10 mi
10:30 PM63 °FClear.1 mph94%30.09 "Hg10 mi
10:00 PM64 °FSunny.No wind88%30.07 "Hg10 mi
9:30 PM64 °FSunny.3 mph94%30.07 "Hg10 mi
9:00 PM64 °FSunny.3 mph94%30.07 "Hg10 mi
8:30 PM66 °FPassing clouds.6 mph83%30.04 "HgN/A
8:00 PM66 °FPassing clouds.7 mph83%30.04 "HgN/A
7:30 PM66 °FPartly sunny.8 mph83%30.04 "HgN/A
7:00 PM68 °FPassing clouds.9 mph83%30.04 "HgN/A
6:30 PM70 °FSunny.10 mph73%30.04 "Hg10 mi
6:00 PM72 °FPassing clouds.9 mph65%30.04 "HgN/A
5:30 PM73 °FPassing clouds.8 mph65%30.04 "HgN/A
5:00 PM73 °FPassing clouds.8 mph65%30.04 "HgN/A
4:30 PM75 °FPassing clouds.9 mph54%30.07 "HgN/A
4:00 PM75 °FPassing clouds.9 mph54%30.07 "HgN/A
3:30 PM75 °FPassing clouds.9 mph57%30.07 "HgN/A
3:00 PM73 °FPassing clouds.8 mph61%30.07 "HgN/A
2:30 PM73 °FPassing clouds.9 mph65%30.07 "HgN/A
2:00 PM73 °FPassing clouds.8 mph61%30.07 "HgN/A
1:30 PM73 °FSunny.10 mph65%30.07 "Hg10 mi
1:00 PM73 °FPassing clouds.8 mph61%30.09 "HgN/A
12:30 PM73 °FPassing clouds.8 mph69%30.09 "HgN/A
12:00 PM72 °FPassing clouds.8 mph73%30.09 "HgN/A
11:30 AM72 °FPassing clouds.8 mph69%30.09 "HgN/A
11:00 AM72 °FPassing clouds.8 mph73%30.09 "HgN/A
10:30 AM70 °FScattered clouds.6 mph78%30.09 "HgN/A
10:00 AM70 °FPassing clouds.6 mph73%30.09 "HgN/A
9:30 AM68 °FPassing clouds.5 mph78%30.09 "HgN/A
9:00 AM68 °FPassing clouds.3 mph78%30.09 "HgN/A
Weather by CustomWeather, © 2015

See weather overviewHow to use our weather pages